Location: Doughton Park
(36.4224°N, 81.1835°W)
Time: 21:10:10
(UTC-04:00)

Amateur Radio Satellites - All Passes

Search period start: 26 August 2016 20:40
Search period end: 27 August 2016 20:40
Location: Doughton Park, 36.4224°N, 81.1835°W

Satellite Date Start Highest point End Downlink Frequencies (MHz)
Time Altitude Azimuth
Oscar 11 26 Aug 20:45:57 20:48:17 14° 66° (ENE) 20:50:36 145.826/435.025
BEESAT 2 26 Aug 20:49:05 20:52:55 45° 245° (WSW) 20:56:44 435.950
FUNcube-1 26 Aug 20:51:20 20:54:02 16° 68° (ENE) 20:56:44 145.935
CUBEBUG 2 26 Aug 20:52:41 20:57:09 44° 73° (ENE) 21:01:33 437.445
UWE-3 26 Aug 20:53:27 20:57:24 29° 71° (ENE) 21:01:18 435.000/436.395/437.385
Cosmos 2491 26 Aug 21:01:52 21:08:12 22° 292° (WNW) 21:14:36 435.465 / 435.565
PRISM 26 Aug 21:01:56 21:02:43 10° 92° (E) 21:03:32 437.425
ZACube-1 26 Aug 21:10:52 21:14:42 28° 71° (ENE) 21:18:28 437.345
BEESAT 3 26 Aug 21:11:29 21:13:13 13° 252° (WSW) 21:14:58 437.485
PCSat 26 Aug 21:12:08 21:16:24 23° 52° (NE) 21:20:38 145.827
HO-68 26 Aug 21:12:09 21:19:06 51° 259° (W) 21:26:05 435.675
SEEDS 26 Aug 21:13:01 21:17:04 52° 260° (W) 21:21:08 437.485
AIST 1 26 Aug 21:13:28 21:17:50 59° 81° (E) 21:22:08
AIST 2 26 Aug 21:13:52 21:15:57 13° 46° (NE) 21:18:03 435.215
CANX-2 26 Aug 21:33:27 21:36:24 18° 266° (W) 21:39:20 2200.000
STRAND 1 26 Aug 21:37:49 21:42:15 31° 291° (WNW) 21:46:40 437.568
CUTE 1.7 + AOD 2 26 Aug 21:39:51 21:42:44 18° 266° (W) 21:45:38 437.475
AAUSAT CUBESAT 2 26 Aug 21:47:49 21:51:37 37° 262° (W) 21:55:27 437.432
COMPASS 1 26 Aug 21:55:16 21:58:36 24° 264° (W) 22:01:59 437.405
DELFI C3 26 Aug 22:01:17 22:04:57 39° 73° (ENE) 22:08:38 145.870
HUMSAT D 26 Aug 22:07:47 22:11:05 23° 70° (ENE) 22:14:22 437.325/437.525
Oscar 11 26 Aug 22:19:54 22:24:00 44° 261° (W) 22:28:08 145.826/435.025
FUNcube-1 26 Aug 22:25:43 22:29:57 41° 261° (W) 22:34:07 145.935
AUBIESAT-1 26 Aug 22:26:45 22:29:39 17° 61° (ENE) 22:32:33 437.475
UWE-3 26 Aug 22:30:09 22:33:48 23° 265° (W) 22:37:25 435.000/436.395/437.385
M-CUBED/EXP-1 PRIME 26 Aug 22:30:37 22:34:12 22° 63° (ENE) 22:37:50 437.505
CUBEBUG 2 26 Aug 22:31:01 22:33:54 16° 267° (W) 22:36:46 437.445
PRISM 26 Aug 22:34:13 22:38:18 53° 286° (WNW) 22:42:22 437.425
TIGRISAT 26 Aug 22:37:01 22:38:32 12° 92° (E) 22:40:03 435.000
ZACube-1 26 Aug 22:47:23 22:50:55 23° 265° (W) 22:54:25 437.345
AIST 2 26 Aug 22:50:41 22:54:49 61° 243° (WSW) 22:58:56 435.215
PCSat 26 Aug 22:54:50 23:00:01 47° 249° (WSW) 23:05:10 145.827
UNISAT 6 26 Aug 23:03:26 23:07:05 27° 96° (E) 23:10:41 437.425
VELOX 1 26 Aug 23:30:59 23:33:59 18° 67° (ENE) 23:36:58 145.980
SO-50 26 Aug 23:32:24 23:36:05 22° 110° (ESE) 23:39:45 436.795
O/OREOS (USA 219) 26 Aug 23:34:10 23:36:01 12° 56° (NE) 23:37:53 437.305
Cosmos 2499 26 Aug 23:34:15 23:40:28 32° 75° (ENE) 23:46:41 435.465 / 435.565
CUBEBUG 1 26 Aug 23:35:16 23:38:46 24° 69° (ENE) 23:42:19 437.445
DELFI C3 26 Aug 23:38:22 23:39:58 12° 268° (W) 23:41:33 145.870
ANTELSAT 26 Aug 23:39:57 23:44:15 75° 103° (ESE) 23:48:29 437.575/2403.000
GONETS M04 26 Aug 23:40:06 23:48:43 53° 78° (ENE) 23:57:16
HUMSAT D 26 Aug 23:43:11 23:46:35 24° 264° (W) 23:49:59 437.325/437.525
DX 1 26 Aug 23:51:38 23:54:50 20° 68° (ENE) 23:58:03 434.975-435.025
QB50P1 26 Aug 23:51:43 23:53:14 12° 92° (E) 23:54:45 145.935-145.965
SPROUT 26 Aug 23:58:34 00:01:23 17° 68° (ENE) 00:04:12 437.525
AUBIESAT-1 26 Aug 23:59:11 00:03:39 50° 256° (WSW) 00:08:10 437.475
POPSAT HIP 1 27 Aug 00:00:47 00:03:14 15° 93° (E) 00:05:41 437.405
RS-15 27 Aug 00:02:48 00:07:51 14° 96° (E) 00:13:00 29.354- 29.394
M-CUBED/EXP-1 PRIME 27 Aug 00:04:09 00:08:26 37° 258° (WSW) 00:12:48 437.505
CUSAT 1 27 Aug 00:04:58 00:07:34 40° 93° (E) 00:10:38 437.405
ESTCUBE 1 27 Aug 00:05:32 00:10:00 85° 77° (ENE) 00:14:31 437.505/2401.250
TIGRISAT 27 Aug 00:11:22 00:15:30 48° 286° (WNW) 00:19:34 435.000
AISAT 27 Aug 00:18:11 00:22:34 65° 75° (ENE) 00:27:01 437.250
JAS-2 27 Aug 00:24:48 00:30:11 23° 94° (E) 00:35:54 435.910
DUCHIFAT 1 27 Aug 00:28:44 00:32:23 29° 97° (E) 00:36:01 145.980
QB50P2 27 Aug 00:29:41 00:33:37 37° 98° (E) 00:37:30 145.880/145.840
POLYITAN 1 27 Aug 00:32:13 00:36:08 37° 98° (E) 00:40:01 437.675
UKube-1 27 Aug 00:33:01 00:37:08 45° 73° (ENE) 00:41:16 .
UNISAT 6 27 Aug 00:40:21 00:43:39 22° 291° (WNW) 00:46:54 437.425
NANOSAT C BR1 27 Aug 00:41:43 00:45:46 45° 99° (E) 00:49:47 145.865
50 SAT 27 Aug 00:43:16 00:46:47 58° 259° (W) 00:50:20 437.505
DANDE 27 Aug 00:52:29 00:54:56 39° 95° (E) 00:57:27 436.750
VELOX 1 27 Aug 01:06:02 01:10:08 37° 262° (W) 01:14:16 145.980
CUBEBUG 1 27 Aug 01:11:13 01:14:55 26° 264° (W) 01:18:39 437.445
O/OREOS (USA 219) 27 Aug 01:11:18 01:15:52 65° 252° (WSW) 01:20:25 437.305
SO-50 27 Aug 01:11:44 01:16:17 40° 305° (NW) 01:20:51 436.795
QB50P1 27 Aug 01:25:11 01:29:15 48° 286° (WNW) 01:33:17 145.935-145.965
DX 1 27 Aug 01:26:55 01:30:47 31° 262° (W) 01:34:42 434.975-435.025
Cosmos 2499 27 Aug 01:27:10 01:33:31 38° 271° (W) 01:39:58 435.465 / 435.565
BUGSAT 1 27 Aug 01:27:47 01:31:54 61° 101° (E) 01:35:55 437.445
SPROUT 27 Aug 01:33:02 01:37:01 36° 262° (W) 01:41:01 437.525
POPSAT HIP 1 27 Aug 01:35:15 01:39:08 37° 288° (WNW) 01:43:00 437.405
GONETS M04 27 Aug 01:37:40 01:45:01 31° 276° (W) 01:52:22
PHONESAT 2.4 27 Aug 01:50:50 01:53:03 19° 147° (SSE) 01:55:18 2401.200-2431.200
TISAT 1 27 Aug 01:55:11 01:59:26 80° 76° (ENE) 02:03:42 437.305
Oscar 19 27 Aug 01:59:53 02:04:01 23° 95° (E) 02:08:07 437.125/150
ITUPSAT 1 27 Aug 02:04:15 02:07:28 18° 66° (ENE) 02:10:42 437.325
DUCHIFAT 1 27 Aug 02:04:49 02:07:52 20° 292° (WNW) 02:10:54 145.980
QB50P2 27 Aug 02:06:29 02:09:05 16° 293° (WNW) 02:11:42 145.880/145.840
RS-15 27 Aug 02:06:38 02:17:58 74° 115° (ESE) 02:29:59 29.354- 29.394
JAS-2 27 Aug 02:08:39 02:15:22 62° 287° (WNW) 02:22:49 435.910
POLYITAN 1 27 Aug 02:09:02 02:11:36 16° 293° (WNW) 02:14:08 437.675
UKube-1 27 Aug 02:11:19 02:13:23 13° 267° (W) 02:15:27 .
NANOSAT C BR1 27 Aug 02:19:03 02:21:05 13° 294° (WNW) 02:23:05 145.865
SWISSCUBE 27 Aug 02:36:20 02:40:50 45° 72° (ENE) 02:45:21 437.505
BEESAT 27 Aug 02:53:21 02:58:02 62° 74° (ENE) 03:02:44 436.000
Gurwin Techsat 1B 27 Aug 03:02:11 03:07:15 43° 99° (E) 03:12:17 435.225
ITAMSAT 1 27 Aug 03:13:04 03:15:53 15° 92° (E) 03:18:42 435.822/435.867
MOZHAYETS 4 27 Aug 03:17:11 03:19:32 14° 66° (ENE) 03:21:55
KKS-1 27 Aug 03:18:57 03:20:19 11° 64° (ENE) 03:21:42 437.445
PHONESAT 2.4 27 Aug 03:26:11 03:29:11 76° 340° (NNW) 03:32:11 2401.200-2431.200
Oscar 19 27 Aug 03:38:37 03:43:22 37° 290° (WNW) 03:48:05 437.125/150
ITUPSAT 1 27 Aug 03:40:28 03:44:58 42° 261° (W) 03:49:29 437.325
STARS 27 Aug 03:56:12 03:58:31 14° 65° (ENE) 04:00:50 437.465
AO-7 27 Aug 04:04:59 04:11:48 28° 96° (E) 04:18:33 29.400- 29.500
SWISSCUBE 27 Aug 04:15:53 04:18:48 16° 267° (W) 04:21:44 437.505
RS-15 27 Aug 04:21:15 04:31:34 35° 319° (NW) 04:42:24 29.354- 29.394
BEESAT 27 Aug 04:34:35 04:36:10 12° 268° (W) 04:37:47 436.000
CUBESAT XI-V 27 Aug 04:35:42 04:37:19 12° 64° (ENE) 04:38:55 437.345
Gurwin Techsat 1B 27 Aug 04:42:55 04:46:52 21° 294° (WNW) 04:50:47 435.225
ITAMSAT 1 27 Aug 04:50:36 04:55:40 57° 287° (WNW) 05:00:44 435.822/435.867
MOZHAYETS 4 27 Aug 04:51:49 04:56:15 51° 261° (W) 05:00:42
KKS-1 27 Aug 04:51:52 04:56:18 64° 259° (WSW) 05:00:46 437.445
PHONESAT 2.4 27 Aug 05:02:57 05:05:46 35° 358° (N) 05:08:33 2401.200-2431.200
AO-85 27 Aug 05:10:24 05:14:28 22° 110° (ESE) 05:18:25 145.980
Cosmos 2491 27 Aug 05:16:01 05:23:39 31° 72° (ENE) 05:31:13 435.465 / 435.565
STARS 27 Aug 05:30:08 05:34:25 49° 260° (W) 05:38:44 437.465
AO-7 27 Aug 05:56:48 06:04:54 59° 293° (WNW) 06:12:58 29.400- 29.500
HORYU 2 27 Aug 06:07:51 06:12:04 44° 99° (E) 06:16:16 437.375
CUBESAT XI-V 27 Aug 06:09:34 06:14:06 63° 259° (W) 06:18:41 437.345
BRITE-PL 27 Aug 06:10:27 06:14:57 24° 93° (E) 06:19:20 437.365/2234.400
YUBILEINY 27 Aug 06:26:49 06:34:51 41° 87° (E) 06:42:53 435.215
PHONESAT 2.4 27 Aug 06:39:27 06:42:24 55° 14° (NNE) 06:45:20 2401.200-2431.200
RS-15 27 Aug 06:42:51 06:49:34 16° 353° (N) 06:56:24 29.354- 29.394
AO-85 27 Aug 06:49:36 06:54:42 45° 304° (NW) 06:59:33 145.980
LilacSat-2 27 Aug 06:53:10 06:55:56 19° 95° (E) 06:58:40 437.200
Cosmos 2504 27 Aug 07:09:08 07:15:44 26° 85° (E) 07:22:00 435.465 / 435.565
STRAND 1 27 Aug 07:12:15 07:16:42 31° 69° (ENE) 07:21:08 437.568
Cosmos 2491 27 Aug 07:12:18 07:20:44 52° 270° (W) 07:29:10 435.465 / 435.565
Cubesat XI-IV 27 Aug 07:13:15 07:18:10 37° 98° (E) 07:23:03 437.490
CUTE-I 27 Aug 07:25:09 07:30:19 50° 100° (E) 07:35:27 437.470
GOMX 1 27 Aug 07:27:47 07:33:08 58° 100° (E) 07:38:09 467.674
NOAA 15 27 Aug 07:28:41 07:34:00 71° 102° (ESE) 07:39:17 137.62
DOVE 4 27 Aug 07:38:31 07:42:57 31° 95° (E) 07:47:08 437.250
HORYU 2 27 Aug 07:45:42 07:48:14 15° 294° (WNW) 07:50:46 437.375
BRITE-PL 27 Aug 07:48:09 07:53:30 43° 288° (WNW) 07:58:44 437.365/2234.400
AO-7 27 Aug 07:53:43 07:55:55 11° 312° (NW) 07:58:07 29.400- 29.500
NOAA 18 27 Aug 07:59:15 08:04:45 90° 302° (WNW) 08:10:12 137.9125
SO-50 27 Aug 08:07:13 08:08:49 12° 42° (NE) 08:10:25 436.795
PHONESAT 2.4 27 Aug 08:15:59 08:18:39 30° 210° (SSW) 08:21:20 2401.200-2431.200
YUBILEINY 27 Aug 08:23:25 08:31:32 40° 285° (WNW) 08:39:43 435.215
CINEMA 3 27 Aug 08:24:35 08:28:07 23° 94° (E) 08:31:32 145.822/145.860
LilacSat-2 27 Aug 08:27:09 08:30:09 23° 289° (WNW) 08:33:08 437.200
HO-68 27 Aug 08:42:42 08:49:12 36° 98° (E) 08:55:40 435.675
STRAND 1 27 Aug 08:51:32 08:55:48 27° 264° (W) 09:00:07 437.568
Cubesat XI-IV 27 Aug 08:53:46 08:57:59 24° 293° (WNW) 09:02:11 437.490
RS-15 27 Aug 08:59:26 09:08:51 24° 30° (NNE) 09:18:11 29.354- 29.394
SEEDS 27 Aug 08:59:29 09:03:11 29° 97° (E) 09:06:51 437.485
Cosmos 2504 27 Aug 09:00:11 09:08:35 58° 280° (W) 09:16:27 435.465 / 435.565
CUTE-I 27 Aug 09:06:19 09:09:56 19° 295° (WNW) 09:13:34 437.470
GOMX 1 27 Aug 09:07:15 09:10:35 17° 296° (WNW) 09:13:50 467.674
NOAA 15 27 Aug 09:10:33 09:13:08 14° 298° (WNW) 09:15:42 137.62
DOVE 4 27 Aug 09:16:21 09:20:27 25° 292° (WNW) 09:24:22 437.250
ISS 27 Aug 09:18:07 09:21:22 73° 137° (SE) 09:24:38 145.825
CANX-2 27 Aug 09:19:19 09:23:33 89° 81° (E) 09:27:49 2200.000
PRISM 27 Aug 09:20:41 09:24:44 74° 76° (ENE) 09:28:51 437.425
BEESAT 3 27 Aug 09:22:02 09:24:00 14° 109° (ESE) 09:26:01 437.485
CUTE 1.7 + AOD 2 27 Aug 09:25:33 09:29:47 89° 307° (NW) 09:34:03 437.475
AAUSAT CUBESAT 2 27 Aug 09:32:15 09:36:08 37° 98° (E) 09:40:00 437.432
COMPASS 1 27 Aug 09:39:30 09:43:38 61° 100° (E) 09:47:47 437.405
AIST 1 27 Aug 09:40:01 09:44:02 38° 92° (E) 09:48:06
NOAA 18 27 Aug 09:43:08 09:44:34 11° 301° (WNW) 09:46:00 137.9125
SO-50 27 Aug 09:45:22 09:49:58 88° 241° (WSW) 09:54:25 436.795
UNISAT 6 27 Aug 10:00:04 10:03:24 20° 68° (ENE) 10:06:42 437.425
CINEMA 3 27 Aug 10:01:25 10:05:13 27° 290° (WNW) 10:08:52 145.822/145.860
Oscar 11 27 Aug 10:09:28 10:13:30 38° 98° (E) 10:17:31 145.826/435.025
FUNcube-1 27 Aug 10:16:11 10:20:06 41° 98° (E) 10:24:00 145.935
UWE-3 27 Aug 10:21:22 10:25:33 88° 102° (ESE) 10:29:42 435.000/436.395/437.385
CUBEBUG 2 27 Aug 10:22:38 10:26:47 56° 285° (WNW) 10:30:50 437.445
HO-68 27 Aug 10:30:21 10:36:50 39° 294° (WNW) 10:43:20 435.675
SEEDS 27 Aug 10:35:35 10:38:40 20° 291° (WNW) 10:41:44 437.485
ANTELSAT 27 Aug 10:35:47 10:40:13 48° 74° (ENE) 10:44:36 437.575/2403.000
CUSAT 1 27 Aug 10:36:43 10:42:53 42° 78° (ENE) 10:50:06 437.405
ZACube-1 27 Aug 10:37:11 10:41:21 84° 102° (ESE) 10:45:28 437.345
BEESAT 2 27 Aug 10:38:10 10:42:00 54° 116° (ESE) 10:45:53 435.950
ISS 27 Aug 10:56:07 10:58:09 15° 334° (NNW) 11:00:12 145.825
BEESAT 3 27 Aug 10:57:35 11:01:17 40° 304° (NW) 11:05:01 437.485
TIGRISAT 27 Aug 11:06:39 11:11:18 80° 259° (WSW) 11:15:52 435.000
AAUSAT CUBESAT 2 27 Aug 11:08:47 11:11:16 16° 293° (WNW) 11:13:46 437.432
RS-15 27 Aug 11:11:45 11:24:09 70° 57° (ENE) 11:36:14 29.354- 29.394
JUGNU 27 Aug 11:12:54 11:13:30 10° 167° (SSE) 11:14:07 437.505
DELFI C3 27 Aug 11:15:32 11:19:33 83° 283° (WNW) 11:23:33 145.870
COMPASS 1 27 Aug 11:18:19 11:18:39 10° 295° (WNW) 11:18:58 437.405
DUCHIFAT 1 27 Aug 11:18:57 11:21:39 17° 67° (ENE) 11:24:21 145.980
AIST 1 27 Aug 11:19:17 11:21:48 15° 287° (WNW) 11:24:19
QB50P2 27 Aug 11:20:18 11:23:31 21° 69° (ENE) 11:26:44 145.880/145.840
POLYITAN 1 27 Aug 11:22:48 11:26:02 21° 69° (ENE) 11:29:17 437.675
HUMSAT D 27 Aug 11:28:03 11:32:06 60° 101° (E) 11:36:08 437.325/437.525
DANDE 27 Aug 11:28:17 11:33:32 41° 79° (E) 11:40:13 436.750
NANOSAT C BR1 27 Aug 11:31:37 11:35:06 25° 70° (ENE) 11:38:34 145.865
UNISAT 6 27 Aug 11:35:37 11:39:51 35° 262° (W) 11:44:03 437.425
AUBIESAT-1 27 Aug 11:42:54 11:44:34 12° 96° (E) 11:46:12 437.475
Oscar 11 27 Aug 11:46:36 11:49:18 16° 293° (WNW) 11:51:59 145.826/435.025
M-CUBED/EXP-1 PRIME 27 Aug 11:47:11 11:50:02 19° 98° (E) 11:52:44 437.505
PCSat 27 Aug 11:51:01 11:55:45 32° 109° (ESE) 12:00:30 145.827
FUNcube-1 27 Aug 11:53:51 11:55:58 14° 293° (WNW) 11:58:05 145.935
ESTCUBE 1 27 Aug 12:01:14 12:04:44 21° 95° (E) 12:08:12 437.505/2401.250
Cosmos 2499 27 Aug 12:07:36 12:14:31 31° 87° (E) 12:21:02 435.465 / 435.565
AISAT 27 Aug 12:12:19 12:14:53 15° 93° (E) 12:17:24 437.250
QB50P1 27 Aug 12:14:27 12:18:43 86° 74° (ENE) 12:23:01 145.935-145.965
ANTELSAT 27 Aug 12:14:41 12:17:07 14° 267° (W) 12:19:32 437.575/2403.000
BUGSAT 1 27 Aug 12:14:57 12:18:39 30° 71° (ENE) 12:22:23 437.445
50 SAT 27 Aug 12:15:27 12:17:07 13° 93° (E) 12:18:46 437.505
BEESAT 2 27 Aug 12:18:14 12:20:09 13° 313° (NW) 12:22:05 435.950
CUSAT 1 27 Aug 12:18:50 12:24:46 35° 268° (W) 12:31:33 437.405
JAS-2 27 Aug 12:19:34 12:24:23 41° 70° (ENE) 12:29:29 435.910
POPSAT HIP 1 27 Aug 12:24:25 12:28:42 73° 259° (WSW) 12:32:59 437.405
GONETS M04 27 Aug 12:37:27 12:46:02 66° 92° (E) 12:54:43
AIST 2 27 Aug 12:45:34 12:49:30 50° 116° (ESE) 12:53:30 435.215
DUCHIFAT 1 27 Aug 12:53:05 12:57:01 36° 262° (W) 13:00:59 145.980
QB50P2 27 Aug 12:55:24 12:59:07 29° 263° (W) 13:02:51 145.880/145.840
POLYITAN 1 27 Aug 12:57:57 13:01:39 28° 263° (W) 13:05:22 437.675
VELOX 1 27 Aug 12:58:15 13:02:35 48° 100° (E) 13:06:52 145.980
JUGNU 27 Aug 12:58:26 13:01:42 15° 177° (S) 13:04:57 437.505
CUBEBUG 1 27 Aug 13:01:25 13:05:51 67° 102° (ESE) 13:10:13 437.445
NANOSAT C BR1 27 Aug 13:07:16 13:10:43 24° 264° (W) 13:14:11 145.865
DANDE 27 Aug 13:11:23 13:16:11 28° 267° (W) 13:22:01 436.750
Oscar 19 27 Aug 13:14:17 13:18:34 27° 68° (ENE) 13:22:52 437.125/150
AUBIESAT-1 27 Aug 13:15:32 13:19:18 39° 293° (WNW) 13:22:47 437.475
DX 1 27 Aug 13:17:00 13:21:18 51° 100° (E) 13:25:33 434.975-435.025
M-CUBED/EXP-1 PRIME 27 Aug 13:21:05 13:24:36 28° 295° (WNW) 13:27:52 437.505
SPROUT 27 Aug 13:21:10 13:25:15 43° 99° (E) 13:29:18 437.525
RS-15 27 Aug 13:25:29 13:35:38 32° 257° (WSW) 13:45:36 29.354- 29.394
PCSat 27 Aug 13:34:15 13:39:04 32° 305° (NW) 13:43:54 145.827
ESTCUBE 1 27 Aug 13:37:32 13:41:31 31° 289° (WNW) 13:45:30 437.505/2401.250
TISAT 1 27 Aug 13:43:08 13:45:28 14° 93° (E) 13:47:47 437.305
O/OREOS (USA 219) 27 Aug 13:43:09 13:46:19 19° 101° (E) 13:49:31 437.305
AISAT 27 Aug 13:47:17 13:51:31 43° 287° (WNW) 13:55:43 437.250
50 SAT 27 Aug 13:47:29 13:50:46 32° 287° (WNW) 13:54:03 437.505
BUGSAT 1 27 Aug 13:50:56 13:54:01 19° 265° (W) 13:57:07 437.445
UKube-1 27 Aug 13:58:14 14:02:32 66° 286° (WNW) 14:06:50 .
Cosmos 2499 27 Aug 13:59:27 14:07:19 47° 282° (WNW) 14:14:39 435.465 / 435.565
JAS-2 27 Aug 14:06:07 14:09:46 19° 267° (W) 14:13:31 435.910
Gurwin Techsat 1B 27 Aug 14:20:40 14:25:49 54° 73° (ENE) 14:31:00 435.225
AIST 2 27 Aug 14:25:51 14:28:16 15° 312° (NW) 14:30:41 435.215
ITAMSAT 1 27 Aug 14:28:30 14:32:03 19° 65° (ENE) 14:35:35 435.822/435.867
SRMSAT 27 Aug 14:35:05 14:37:53 14° 172° (S) 14:40:41 437.500
VELOX 1 27 Aug 14:36:12 14:38:36 14° 295° (WNW) 14:40:59 145.980
GONETS M04 27 Aug 14:36:43 14:43:29 24° 291° (WNW) 14:50:21
SWISSCUBE 27 Aug 14:40:34 14:42:59 14° 93° (E) 14:45:25 437.505
CUBEBUG 1 27 Aug 14:40:47 14:41:31 10° 296° (WNW) 14:42:14 437.445
JUGNU 27 Aug 14:47:01 14:49:55 14° 187° (S) 14:52:48 437.505
Oscar 19 27 Aug 14:53:09 14:57:43 32° 263° (W) 15:02:20 437.125/150
DX 1 27 Aug 14:54:58 14:57:00 13° 295° (WNW) 14:59:01 434.975-435.025
BEESAT 27 Aug 14:56:56 15:00:17 19° 94° (E) 15:03:39 436.000
SPROUT 27 Aug 14:58:29 15:00:48 14° 294° (WNW) 15:03:06 437.525
AO-7 27 Aug 15:01:22 15:08:28 32° 60° (ENE) 15:15:35 29.400- 29.500
TISAT 1 27 Aug 15:17:20 15:21:15 38° 288° (WNW) 15:25:07 437.305
O/OREOS (USA 219) 27 Aug 15:21:23 15:25:26 33° 296° (WNW) 15:29:33 437.305
AO-85 27 Aug 15:24:09 15:28:22 81° 60° (ENE) 15:32:17 145.980
ITUPSAT 1 27 Aug 15:43:05 15:47:48 59° 101° (ESE) 15:52:30 437.325
ISS 27 Aug 15:48:10 15:51:07 29° 34° (NE) 15:54:03 145.825
Gurwin Techsat 1B 27 Aug 16:02:48 16:06:03 16° 267° (W) 16:09:19 435.225
ITAMSAT 1 27 Aug 16:06:07 16:11:07 48° 260° (W) 16:16:07 435.822/435.867
SWISSCUBE 27 Aug 16:16:25 16:21:02 52° 287° (WNW) 16:25:40 437.505
SRMSAT 27 Aug 16:22:59 16:26:15 15° 183° (S) 16:29:30 437.500
BEESAT 27 Aug 16:33:46 16:38:11 38° 289° (WNW) 16:42:33 436.000
YUBILEINY 27 Aug 16:41:30 16:46:41 17° 65° (ENE) 16:51:49 435.215
KKS-1 27 Aug 16:45:41 16:49:34 29° 97° (E) 16:53:24 437.445
MOZHAYETS 4 27 Aug 16:49:11 16:53:34 43° 99° (E) 16:57:55
AO-7 27 Aug 16:52:41 17:00:49 54° 257° (WSW) 17:08:58 29.400- 29.500
HORYU 2 27 Aug 17:03:28 17:07:22 30° 70° (ENE) 17:11:15 437.375
BRITE-PL 27 Aug 17:19:23 17:22:38 18° 65° (ENE) 17:26:05 437.365/2234.400
STARS 27 Aug 17:22:06 17:26:08 34° 98° (E) 17:30:07 437.465
ITUPSAT 1 27 Aug 17:22:49 17:25:06 13° 296° (WNW) 17:27:22 437.325
ISS 27 Aug 17:24:47 17:27:29 24° 229° (SW) 17:30:10 145.825
NOAA 18 27 Aug 17:45:01 17:48:27 17° 63° (ENE) 17:51:52 137.9125
CUBESAT XI-V 27 Aug 18:08:38 18:13:01 38° 98° (E) 18:17:23 437.345
SRMSAT 27 Aug 18:13:29 18:14:36 10° 193° (SSW) 18:15:42 437.500
Cosmos 2491 27 Aug 18:14:01 18:21:50 39° 87° (E) 18:29:40 435.465 / 435.565
KKS-1 27 Aug 18:22:28 18:25:57 23° 292° (WNW) 18:29:24 437.445
MOZHAYETS 4 27 Aug 18:27:31 18:30:20 16° 294° (WNW) 18:33:10
Cubesat XI-IV 27 Aug 18:32:37 18:37:45 49° 72° (ENE) 18:42:52 437.490
GOMX 1 27 Aug 18:32:39 18:37:25 45° 72° (ENE) 18:42:29 467.674
YUBILEINY 27 Aug 18:35:52 18:44:41 90° 262° (W) 18:53:23 435.215
HORYU 2 27 Aug 18:40:30 18:43:54 21° 265° (W) 18:47:19 437.375
DOVE 4 27 Aug 18:40:53 18:45:05 26° 68° (ENE) 18:49:23 437.250
CUTE-I 27 Aug 18:44:22 18:49:38 64° 74° (ENE) 18:54:55 437.470
NOAA 15 27 Aug 18:46:11 18:51:25 87° 74° (ENE) 18:56:43 137.62
BRITE-PL 27 Aug 18:56:06 19:00:38 46° 262° (W) 19:05:35 437.365/2234.400
Cosmos 2504 27 Aug 18:56:13 19:02:59 41° 77° (ENE) 19:09:40 435.465 / 435.565
STARS 27 Aug 18:59:09 19:02:12 19° 293° (WNW) 19:05:13 437.465
BEESAT 2 27 Aug 18:59:16 19:01:53 17° 49° (NE) 19:04:29 435.950
LilacSat-2 27 Aug 19:05:32 19:09:22 71° 259° (W) 19:13:12 437.200
HO-68 27 Aug 19:09:55 19:15:06 22° 60° (ENE) 19:20:17 435.675
BEESAT 3 27 Aug 19:16:48 19:20:39 46° 57° (ENE) 19:24:27 437.485
NOAA 18 27 Aug 19:23:04 19:28:32 61° 258° (WSW) 19:34:02 137.9125
CINEMA 3 27 Aug 19:23:30 19:27:00 19° 67° (ENE) 19:30:28 145.822/145.860
STRAND 1 27 Aug 19:27:01 19:29:02 12° 91° (E) 19:31:03 437.568
CUBESAT XI-V 27 Aug 19:46:46 19:50:05 19° 293° (WNW) 19:53:24 437.345
SEEDS 27 Aug 19:49:55 19:52:18 15° 67° (ENE) 19:54:43 437.485
CANX-2 27 Aug 20:09:26 20:13:25 43° 74° (ENE) 20:17:24 2200.000
Cosmos 2491 27 Aug 20:10:26 20:18:29 41° 284° (WNW) 20:26:40 435.465 / 435.565
GOMX 1 27 Aug 20:12:14 20:15:44 19° 269° (W) 20:19:23 467.674
Cubesat XI-IV 27 Aug 20:14:24 20:18:02 18° 266° (W) 20:21:40 437.490
CUTE 1.7 + AOD 2 27 Aug 20:15:33 20:19:32 44° 74° (ENE) 20:23:32 437.475
DOVE 4 27 Aug 20:17:52 20:22:31 35° 264° (W) 20:27:20 437.250
AAUSAT CUBESAT 2 27 Aug 20:20:50 20:23:38 18° 69° (ENE) 20:26:27 437.432
CUTE-I 27 Aug 20:27:29 20:30:04 14° 268° (W) 20:32:40 437.470
COMPASS 1 27 Aug 20:27:59 20:31:31 28° 71° (ENE) 20:35:03 437.405
